Location: Alpha Ridge Park
(39.3209°N, 76.9128°W)
Time: 22:07:59
(UTC-05:00)

X-37B - Visible Passes

Search period start: 30 November 2023 00:00
Search period end: 10 December 2023 00:00
Orbit: 277 x 277 km, 45.0° (Epoch: 01 November)

Date Brightness Start Highest point End Pass type
(mag) Time Alt. Az. Time Alt. Az. Time Alt. Az.
30 Nov 0.1 18:02:06 10° WSW 18:04:32 62° NNW 18:04:55 50° NNE visible
01 Dec 0.8 18:02:57 10° W 18:05:16 37° NNW 18:05:36 34° N visible
02 Dec 1.4 18:03:53 10° WNW 18:06:03 26° NNW 18:06:15 26° N visible
03 Dec 1.7 18:04:50 10° WNW 18:06:51 22° N 18:06:53 22° N visible
04 Dec 1.9 18:05:45 10° NW 18:07:31 20° N 18:07:31 20° N visible
05 Dec 1.9 18:06:34 10° NW 18:08:11 20° N 18:08:11 20° N visible
06 Dec 1.7 18:07:17 10° NW 18:08:53 22° N 18:08:53 22° N visible
07 Dec 1.4 18:07:56 10° NW 18:09:40 27° N 18:09:40 27° N visible
08 Dec 0.7 18:08:33 10° NW 18:10:32 39° N 18:10:32 39° N visible
09 Dec -0.2 18:09:11 10° WNW 18:11:34 77° N 18:11:34 77° N visible
